Location: Newark
(47.8167°N, 6.1833°E)
Time: 20:34:37
(UTC+00:00)

N. Korean satellite - Pass Details

Date: 23 September 2020
Orbit: 452 x 505 km, 97.2° (Epoch: 28 October)

Event Time Altitude Azimuth Distance (km) Brightness Sun altitude
Rises 04:35:42 0° 22° (NNE) 2,608 10.7 -8.9°
Reaches altitude 10° 04:38:00 10° 33° (NNE) 1,711 10.0 -8.5°
Maximum altitude 04:41:15 29° 95° (E) 929 8.9 -7.9°
Drops below altitude 10° 04:44:27 10° 158° (SSE) 1,674 9.5 -7.4°
Sets 04:46:40 0° 169° (S) 2,539 10.3 -7.0°
